www.pogodaiklimat.ru

Погода и климат >> Архив погоды >> Россия >> Хабаровский край >> Верховье Урми


ПОГОДА в Верховье Урми

  • Прогноз погоды в Верховье Урми
  • Монитор погоды в Верховье Урми

АРХИВ ПОГОДЫ в Верховье Урми

Время (UTC), дата Ветер
(напр.,м/с)
 
Видим.   Явления Облачность Т
(С)
Тd
(С)
f
(%)
Тe
(С)
Тes
(С)
Комфортность P
(гПа)
Po
(гПа)
Тmin
(С)
Tmax
(С)
R
(мм)
R24
(мм)
S
(см)
06 14.05 Ю 2 50 км 10/9 600 м
[Cb cap Ci fib]
+16.9 +6.4 50 +17 +17 1009.8 960.0
09 14.05 Ю 1 50 км в посл. час ливневой дождь 10/4 600 м
[Cb cap Ac trans Ci fib]
+13.8 +10.2 79 +14 +15 1009.0 958.3 +19.3 2
12 14.05 ЮВ 1 20 км {ливн. осадки} 10/0
[Ac trans Cs]
+12.1 +7.1 71 +12 +12 1010.3 959.2
15 14.05 штиль 0 20 км гроза, ливневой дождь 10/10 600 м
[Cb cap]
+7.4 +7.0 97 +6 +6 1011.5 960.0
18 14.05 штиль 0 20 км {гроза, ливн. осадки} 9/3 600 м
[Cb cap Ac trans Ci fib]
+7.1 +6.8 98 +6 +6 1010.2 958.7
21 14.05 С 1 20 км 9/3 600 м
[Sc diur, vesp Ac trans Ci fib]
+7.6 +7.3 98 +7 +7 1010.4 958.5 +6.6 6
00 15.05 С 1 50 км 10/4 600 м
[Cb cap Ac trans Ci]
+14.2 +8.6 69 +15 +15 1008.9 958.7
03 15.05 В 2 50 км гроза без осадков {ливн. осадки} 10/10 600 м
[Cb cap]
+17.0 +7.9 55 +17 +17 1006.9 957.3
06 15.05 С 2 20 км гроза, ливневой дождь 10/10 600 м
[Cb cap]
+9.8 +5.8 76 +8 +8 1008.2 957.3
09 15.05 С 1 50 км {гроза, ливн. осадки} 4/3 600 м
[Cb cap Ac trans]
+13.5 +8.3 71 +14 +15 1006.2 956.0 +17.2 2
12 15.05 С 1 20 км {гроза, ливн. осадки} 6/3 600 м
[Sc diur, vesp Ci]
+9.2 +6.3 82 +9 +9 1007.6 956.2
15 15.05 СЗ 1 20 км 9/5 600 м
[Cb cap Ac trans]
+9.2 +5.4 77 +9 +9 1007.0 956.0
18 15.05 СЗ 1 20 км 8/3 600 м
[Cb cap Ac trans Ci fib]
+9.8 +5.2 73 +9 +9 1006.9 956.0
21 15.05 штиль 0 50 км 10/0
[Ac trans Ci fib]
+9.3 +5.7 78 +9 +10 1004.5 953.6
00 16.05 В 3 50 км 10/0
[As trans]
+15.4 +6.7 56 +15 +15 1003.0 953.3
03 16.05 ЮВ 3 50 км 8/4 600 м
[Cb cap Ac trans]
+19.7 +6.8 43 +21 +25 комфорт 1000.9 952.0
06 16.05 Ю 2 4000 м гроза, ливневой дождь 10/10 600 м
[Cb cap]
+12.9 +10.3 84 +12 +12 1002.0 952.0
09 16.05 ЮВ 1
{10}
10 км слаб. ливневой дождь {гроза} н/о +9.8 +8.1 89 +9 +11 1002.6 952.0 +20.4 8
12 16.05 штиль 0 20 км {гроза, ливн. осадки} 10/10 600 м
[Cb cap]
+7.3 +6.4 94 +6 +6 1002.2 951.7
15 16.05 СЗ 1 10 км гроза, ливневой дождь 10/10 600 м
[Cb cap]
+5.9 +5.2 95 +5 +5 1007.6 956.0
18 16.05 СВ 1 20 км в посл. час гроза {ливн. осадки} 6/6 600 м
[Cb calv]
+4.9 +3.9 93 +3 +3 1006.4 954.7
21 16.05 СВ 1 50 км 10/3 600 м
[Cb cap Ac trans Ci ing]
+6.7 +5.4 91 +6 +6 1002.2 951.7 +4.4 1
00 17.05 В 1 50 км гроза без осадков 10/10 600 м
[Cb cap]
+10.2 +6.2 76 +10 +10 1005.4 954.7
03 17.05 ЮВ 1 50 км в посл. час гроза {ливн. осадки} 10/10 600 м
[Cb cap]
+13.0 +8.1 72 +13 +13 1003.4 953.3
06 17.05 штиль 0 50 км {гроза, ливн. осадки} 9/9 600 м
[Cb cap]
+16.8 +9.0 60 +17 +18 1002.7 953.3
09 17.05 З 3
{10}
50 км 6/4 600 м
[Cb cap Ac trans]
+20.4 -8.0 14 +20 +21 1003.7 954.7 +21.1
12 17.05 штиль 0 20 км 3/0
[Ac trans]
+8.0 +0.7 60 +8 +8 1007.3 956.0
15 17.05 СЗ 1 20 км 8/0
[Ac trans Ci fib]
+4.8 +0.7 75 +4 +4 1007.9 956.0
18 17.05 В 1 10 км слаб. ливневой дождь 10/10 600 м
[Cb cap]
+5.4 +2.6 82 +4 +4 1009.1 957.3
21 17.05 штиль 0 20 км {ливн. осадки} 10/10 600 м
[Cb cap]
+6.3 +5.9 97 +5 +5 1006.7 954.8 +4.4 1
00 18.05 З 2 20 км в посл. час ливневой дождь 10/10 600 м
[Cb cap]
+8.2 +8.0 99 +6 +6 1007.6 956.0
03 18.05 штиль 0 20 км {ливн. осадки} 10/4 600 м
[Cb cap Ci ing]
+11.7 +8.5 81 +11 +11 1007.9 957.3
06 18.05 штиль 0 50 км {ливн. осадки} 10/0
[Ac As]
+13.0 +5.4 60 +13 +13 1006.3 956.0
09 18.05 штиль 0 50 км 10/3 600 м
[Cb cap Ac As]
+10.2 +5.0 70 +10 +10 1006.8 956.0 +13.4 2
12 18.05 штиль 0 20 км 6/0
[Ac trans Ci fib]
+6.7 +6.0 95 +6 +6 1008.8 957.3
15 18.05 штиль 0 20 км 9/0
[Ac trans]
+4.1 +3.8 98 +3 +3 1010.8 958.7
18 18.05 штиль 0 20 км 10/0
[Ac As]
+2.9 +2.6 98 +2 +2 1012.4 960.0
21 18.05 штиль 0 10 км 10/0
[Ac As]
+3.3 +3.1 99 +2 +3 1013.1 960.2 +2.3
00 19.05 ЮЗ 1 50 км 10/0
[Ci fib]
+9.9 +5.1 72 +10 +10 1012.4 961.3
03 19.05 З 2 50 км 10 баллов +16.1 +1.4 37 +16 +16 1010.0 960.0
06 19.05 ЮЗ 1 50 км 10/4 600 м
[Cb cap Ac As]
+16.1 +0.6 35 +17 +17 1010.0 960.0
09 19.05 штиль 0 50 км 10/6 600 м
[Cb cap Ac trans]
+15.4 +1.5 39 +15 +15 1007.3 957.3 +16.8
12 19.05 штиль 0 20 км 10/4 600 м
[Cb cap Ac trans]
+12.5 +5.2 61 +12 +12 1009.2 958.7
15 19.05 штиль 0 20 км слаб. ливневой дождь 10 баллов +8.5 +7.6 94 +8 +8 1005.7 954.7
18 19.05 Ю 1 20 км слаб. ливневой дождь 10 баллов +7.8 +7.2 96 +7 +7 1003.0 952.0
21 19.05 СВ 2 20 км в посл. час ливневой дождь 10/6 600 м
[Cb cap Ac As]
+9.3 +6.6 83 +8 +8 998.8 948.2 +7.7 4
00 20.05 З 1 50 км в посл. час ливневой дождь 10/8 600 м
[Cb cap Ac As]
+9.8 +8.6 92 +9 +10 996.7 946.0
03 20.05 СВ 2 50 км 10 баллов +11.3 +8.7 84 +10 +10 995.3 945.3
06 20.05 В 3
{10}
50 км {дождь} 10/8 600 м
[Sc As op]
+13.0 +8.6 75 +12 +12 991.6 941.6
09 20.05 В 3
{11}
20 км слаб. дождь 10/10 600 м
[Sc]
+13.1 +9.2 77 +12 +12 992.2 942.7 +13.8 2
12 20.05 В 2
{11}
10 км слаб. дождь 10/10 600 м
[Sc]
+12.3 +9.8 85 +11 +11 989.8 940.2
15 20.05 ЮВ 1 10 км слаб. дождь 10 баллов +10.8 +10.3 97 +10 +10 991.1 941.3
18 20.05 С 1 10 км слаб. дождь 10 баллов +8.7 +8.4 98 +8 +8 991.6 941.3
21 20.05 штиль 0 20 км {ливн. осадки} 10/9 600 м
[Cb cap Ac trans]
+8.9 +8.6 98 +8 +8 991.5 941.3 +8.1 17
00 21.05 штиль 0 10 км слаб. ливневой дождь 10 баллов +11.3 +9.6 89 +11 +11 991.1 941.3

 

Местоположение метеостанции Верховье Урми (Хабаровский край, Россия): широта 50.05 долгота 133.50 высота над уровнем моря 433 м.

В архиве по умолчанию представлена погода в Верховье Урми за последнюю неделю. Архивные данные за месяц целиком и за предыдущие месяцы, начиная с января 2011 года, Вы можете получить, выбрав интересующий диапазон дат из раскрывающегося списка и нажав кнопку "Ввод!".


*Определитесь, кто Вы:
робот инопланетянин человек

Внимание! Время в таблицах - всемирное. Для получения местного времени необходимо прибавить поправку, которая равна 10 ч.

Смотрите также архив погоды в соседних городах и на ближайших метеорологических станциях:

Погода в Урми (Хабаровский край, Россия) (75 км)
Погода в Куре (Хабаровский край, Россия) (80 км)
Погода в Сутуре (Хабаровский край, Россия) (100 км)
Погода в Чекунде (Хабаровский край, Россия) (130 км)
Погода в Чегдомыне (Хабаровский край, Россия) (132 км)
Погода в Литовко (Хабаровский край, Россия) (147 км)
Погода в Биробиджане (Еврейская автономная область, Россия) (153 км)
Погода в Смидовиче (Еврейская автономная область, Россия) (163 км)
Погода в Усть-Умальте (Хабаровский край, Россия) (177 км)
Погода в Хабаровск Центре (Еврейская автономная область, Россия) (181 км)

Пояснения к столбцам:

Ветер - указаны скорость ветра в м/с - средняя за 10 мин, порывы в срок и между сроками (в фигурных скобках) и направление, откуда дует ветер: С - северный, СВ - северо-восточный, В - восточный, ЮВ - юго-восточный, Ю - южный, ЮЗ - юго-западный, З - западный, СЗ - северо-западный.
Видимость - горизонтальная дальность видимости в метрах или километрах. При видимости от 1 до 10 км при отсутствии осадков обычно наблюдается дымка, при ухудшении видимости до 1 км и менее - туман. В сухую погоду видимость может ухудшаться дымом, пылью или мглою.
Явления - указаны атмосферные явления, наблюдавшиеся в срок или в последний час перед сроком; фигурными скобками обозначены явления, наблюдавшиеся между сроками (за 1-3 часа до срока); квадратными скобками обозначены град или гололедные отложения с указанием их диаметра в мм.
Облачность - указаны через наклонную черту общая и нижняя облачность в баллах и высота нижней границы облаков в метрах; квадратными скобками обозначены формы облаков: Ci - перистые, Cs - перисто-слоистые, Cc - перисто-кучевые, Ac - высококучевые, As - высокослоистые, Sc - слоисто-кучевые, Ns - слоисто-дождевые, Cu - кучевые, Cb - кучево-дождевые. Подробнее классификацию облаков см. в Атласе облаков (PDF).
T - Температура воздуха - температура, измеренная на высоте 2 м над землей.
Td - Температура точки росы - температура, при понижении до которой содержащийся в воздухе водяной пар достигнет насыщения.
f - Относительная влажность воздуха - влажноcть воздуха, измеренная на высоте 2 м над землей.
Te - Эффективная температура - температура, которую ощущает одетый по сезону человек в тени. Характеристика душности погоды. При расчете учитывается влияние влажности воздуха и скорости ветра на теплоощущения человека.
Tes - Эффективная температура на солнце - температура, которую ощущает человек, с поправкой на солнечный нагрев. Характеристика знойности погоды. Зависит от высоты солнца над горизонтом, облачности и скорости ветра. Ночью, в пасмурную погоду, а также при ветре 12 м/с и более поправка равна нулю.
P - Атмосферное давление - приведенное к уровню моря атмосферное давление.
Po - Атмосферное давление - измеренное на уровне метеостанции атмосферное давление.
Tmin - Минимальная температура - минимум температуры воздуха на высоте 2 м над землей.
Tmax - Максимальная температура - максимум температуры воздуха на высоте 2 м над землей.
R - Количество осадков - Количество выпавших осадков за период времени, мм. При наведении курсора мыши на число - период времени, за который выпало указанное количество осадков.
R24 - Количество осадков - Количество выпавших осадков за 24 часа, мм.
S - Снежный покров - Высота снежного покрова, см. При наведении курсора мыши на число - состояние снежного покрова и степень покрытия местности в баллах.